This demonstration page uses our WeatherBlox Daily Observations layout. Learn more.

Left ArrowRight Arrow

40.92945, -100.16068

Hourly Observations for May 29, 2020

Temp ( °F °C ) Dew Point ( °F °C ) Humidity (%) Winds ( mph kmh ) Pressure ( in mb ) Visibility ( mi km ) Precip ( " mm )
12:15 am 00:15 Clear 54 12.4 47 8.3 76 76 N 5 7 30.22 1023 10 16.0934 0 0
12:35 am 00:35 Clear 52 11 47 8.6 85 85 N 6 9 30.23 1024 10 16.0934 0 0
12:55 am 00:55 Clear 52 11 47 8.1 82 82 N 7 11 30.23 1024 10 16.0934 0 0
1:15 am 01:15 Clear 51 10.5 47 8.2 86 86 N 5 7 30.24 1024 10 16.0934 0 0
1:35 am 01:35 Clear 49 9.7 47 8.2 90 90 N 5 7 30.24 1024 10 16.0934 0 0
1:55 am 01:55 Clear 51 10.3 47 8.4 88 88 NNW 5 7 30.24 1024 10 16.0934 0 0
2:15 am 02:15 Clear 50 9.8 47 8.5 92 92 W 3 6 30.24 1024 10 16.0934 0 0
2:35 am 02:35 Clear 50 10 47 8.5 91 91 WNW 6 9 30.24 1024 10 16.0934 0 0
2:55 am 02:55 Mostly Cloudy 51 10.4 48 8.8 90 90 WNW 6 9 30.23 1024 10 16.0934 0 0
3:15 am 03:15 Cloudy 51 10.6 48 9.1 91 91 W 5 7 30.24 1024 10 16.0934 0 0
3:35 am 03:35 Cloudy 52 10.9 48 9 88 88 WNW 6 9 30.23 1024 10 16.0934 0 0
3:55 am 03:55 Cloudy 51 10.7 48 9 89 89 WNW 5 7 30.23 1024 10 16.0934 0 0
4:15 am 04:15 Cloudy 53 11.4 50 9.8 90 90 WNW 3 6 30.23 1024 10 16.0934 0 0
4:35 am 04:35 Cloudy 53 11.7 50 10 89 89 W 3 6 30.23 1024 10 16.0934 0 0
4:55 am 04:55 Cloudy 53 11.9 51 10.3 90 90 W 5 7 30.22 1023 10 16.0934 0 0
5:15 am 05:15 Cloudy 54 12.1 51 10.5 90 90 WNW 3 6 30.23 1024 10 16.0934 0 0
5:35 am 05:35 Cloudy 54 12 51 10.5 91 91 WNW 3 6 30.23 1024 10 16.0934 0 0
5:55 am 05:55 Cloudy 54 12.3 51 10.3 88 88 NW 5 7 30.23 1024 10 16.0934 0 0
6:15 am 06:15 Cloudy 54 12 50 10 88 88 W 3 6 30.22 1023 10 16.0934 0 0
6:35 am 06:35 Mostly Cloudy 52 11 50 9.9 93 93 Calm 30.24 1024 10 16.0934 0 0
6:55 am 06:55 Mostly Cloudy 52 11.1 50 9.8 92 92 Calm 30.24 1024 10 16.0934 0 0
7:15 am 07:15 Cloudy 54 12 51 10.3 89 89 WSW 3 6 30.24 1024 10 16.0934 0 0
7:35 am 07:35 Cloudy 54 12.4 51 10.8 90 90 Calm 30.24 1024 10 16.0934 0 0
7:55 am 07:55 Cloudy 56 13.1 51 10.6 85 85 Calm 30.24 1024 10 16.0934 0 0
8:15 am 08:15 Mostly Cloudy 57 13.7 51 10.4 81 81 Calm 30.24 1024 10 16.0934 0 0
8:35 am 08:35 Mostly Cloudy 60 15.4 51 10.4 72 72 Calm 30.22 1023 10 16.0934 0 0
8:55 am 08:55 Partly Cloudy 62 16.5 50 9.9 65 65 W 3 6 30.21 1023 10 16.0934 0 0
9:15 am 09:15 Mostly Cloudy 63 17.1 50 9.8 62 62 Calm 30.22 1023 10 16.0934 0 0
9:35 am 09:35 Cloudy 64 17.7 49 9.6 59 59 Calm 30.2 1023 10 16.0934 0 0
9:55 am 09:55 Cloudy 66 18.7 48 8.8 53 53 Calm 30.19 1022 10 16.0934 0 0
10:15 am 10:15 Cloudy 66 18.9 46 7.9 49 49 Calm 30.19 1022 10 16.0934 0 0
10:35 am 10:35 Cloudy 69 20.5 46 7.6 43 43 S 3 6 30.18 1022 10 16.0934 0 0
10:55 am 10:55 Cloudy 68 19.9 44 6.8 43 43 Calm 30.17 1022 10 16.0934 0 0
11:15 am 11:15 Mostly Cloudy 69 20.6 48 8.7 47 47 ENE 5 7 30.17 1022 10 16.0934 0 0
11:35 am 11:35 Partly Cloudy 70 20.9 45 7.4 42 42 E 3 6 30.15 1021 10 16.0934 0 0
11:55 am 11:55 Sunny 70 21.3 47 8.6 44 44 E 6 9 30.15 1021 10 16.0934 0 0
12:15 pm 12:15 Sunny 71 21.4 47 8.2 43 43 ESE 6 9 30.14 1021 10 16.0934 0 0
12:35 pm 12:35 Sunny 71 21.6 49 9.4 46 46 E 8 13 30.14 1021 10 16.0934 0 0
12:55 pm 12:55 Sunny 72 22.1 49 9.5 45 45 ESE 7 11 30.12 1020 10 16.0934 0 0
1:15 pm 13:15 Sunny 72 22.4 48 9 43 43 SE 6 9 30.11 1020 10 16.0934 0 0
1:35 pm 13:35 Sunny 73 22.9 50 10.1 44 44 ESE 5 7 30.1 1019 10 16.0934 0 0
1:55 pm 13:55 Sunny 73 22.9 48 8.9 41 41 ESE 3 6 30.1 1019 10 16.0934 0 0
2:15 pm 14:15 Sunny 74 23.3 50 10.2 44 44 SE 8 13 30.08 1019 10 16.0934 0 0
2:35 pm 14:35 Sunny 74 23.5 50 10.2 43 43 SE 7 11 30.08 1019 10 16.0934 0 0
2:55 pm 14:55 Sunny 75 23.8 52 10.9 44 44 E 7 11 30.07 1018 10 16.0934 0 0
3:15 pm 15:15 Sunny 75 24.1 51 10.6 43 43 SE 9 15 30.07 1018 10 16.0934 0 0
3:35 pm 15:35 Sunny 76 24.4 53 11.4 44 44 E 12 19 30.05 1018 10 16.0934 0 0
3:55 pm 15:55 Sunny 76 24.6 53 11.6 44 44 E 8 13 30.05 1018 10 16.0934 0 0
4:15 pm 16:15 Sunny 76 24.5 51 10.3 41 41 E 6 9 30.05 1018 10 16.0934 0 0
4:35 pm 16:35 Sunny 76 24.7 52 11 42 42 ESE 12 19 30.04 1017 10 16.0934 0 0
4:55 pm 16:55 Sunny 77 24.9 53 11.5 43 43 E 7 11 30.04 1017 10 16.0934 0 0
5:15 pm 17:15 Sunny 77 24.9 52 11.2 42 42 E 10 17 30.03 1017 10 16.0934 0 0
5:35 pm 17:35 Sunny 77 25.2 53 11.4 42 42 SSE 12 19 30.03 1017 10 16.0934 0 0
5:55 pm 17:55 Sunny 77 25.2 53 11.9 44 44 SSE 6 9 30.03 1017 10 16.0934 0 0
6:15 pm 18:15 Sunny 78 25.5 53 11.8 42 42 ESE 7 11 30.03 1017 10 16.0934 0 0
6:35 pm 18:35 Sunny 77 25 53 11.6 43 43 S 10 17 30.02 1017 10 16.0934 0 0
6:55 pm 18:55 Sunny 76 24.7 54 12.1 45 45 SSE 9 15 30.02 1017 10 16.0934 0 0
7:15 pm 19:15 Sunny 75 24 51 10.8 44 44 SE 9 15 30.03 1017 10 16.0934 0 0
7:35 pm 19:35 Sunny 74 23.3 51 10.4 44 44 ESE 12 19 30.03 1017 10 16.0934 0 0
7:55 pm 19:55 Sunny 73 22.9 51 10.7 46 46 ESE 10 17 30.05 1018 10 16.0934 0 0
8:15 pm 20:15 Sunny 72 22.2 49 9.7 45 45 E 8 13 30.05 1018 10 16.0934 0 0
8:35 pm 20:35 Sunny 70 21.1 49 9.5 48 48 E 12 19 30.06 1018 10 16.0934 0 0
8:55 pm 20:55 Sunny 69 20.6 49 9.3 48 48 E 9 15 30.07 1018 10 16.0934 0 0
9:15 pm 21:15 Clear 68 20.1 49 9.3 50 50 ESE 9 15 30.08 1019 10 16.0934 0 0
9:35 pm 21:35 Clear 67 19.4 49 9.3 52 52 E 10 17 30.09 1019 10 16.0934 0 0
9:55 pm 21:55 Clear 66 18.9 49 9.3 54 54 ESE 9 15 30.1 1019 10 16.0934 0 0
10:15 pm 22:15 Clear 65 18.6 49 9.4 55 55 ESE 10 17 30.11 1020 10 16.0934 0 0
10:35 pm 22:35 Clear 65 18.1 49 9.5 57 57 ESE 10 17 30.13 1020 10 16.0934 0 0
10:55 pm 22:55 Clear 64 17.7 49 9.7 60 60 ESE 9 15 30.13 1020 10 16.0934 0 0
11:15 pm 23:15 Clear 63 17.2 50 10 63 63 ESE 9 15 30.14 1021 10 16.0934 0 0
11:35 pm 23:35 Clear 63 17 50 10.2 64 64 ESE 9 15 30.14 1021 10 16.0934 0 0
11:55 pm 23:55 Clear 61 16.2 51 10.5 69 69 ESE 8 13 30.14 1021 10 16.0934 0 0

Powered by AerisWeather